Flag Weather past 2 weeks in Kempten, Bavaria, Germany

Now
59 °F

Sunny.


Feels Like: 59 °F
Forecast: 40 / 51 °F
Wind: 1 mph from North

Location: Kempten

Current Time: Nov 24, 2014 at 3:07:53 PM

Latest Report: Nov 24, 2014 at 2:00 PM


Visibility: 25 mi

Pressure: 30.17 "Hg

Humidity: 53%

Dew point: 41 °F

Location of KemptenLocation

Historic Weather in Kempten — Graph

°F

Kempten temperature yesterday

Maximum temperature yesterday: 60 °F (at 2:00 PM)
Minimum temperature yesterday: 31 °F (at 7:00 AM)
Average temperature yesterday: 41 °F

Past Weeks' High & Low Weather Summary

 TemperatureHumidityPressure
High60 °F (Nov 23, 2:00 PM)100% (Nov 15, 8:00 AM)30.37 "Hg (Nov 15, 8:00 AM)
Low28 °F (Nov 20, 5:00 AM)46% (Nov 23, 2:00 PM)29.53 "Hg (Nov 15, 11:00 PM)
Average42 °F88%29.94 "Hg
* Reported Nov 9 2:00 PM — Nov 24 2:00 PM, Kempten, Weather by CustomWeather, © 2014

Note: Actual official high and low records may vary slightly from our data, if they occured in-between our weather recording intervals... More about our weather records

Advertising

Kempten weather history for previous 24 hours

 ConditionsComfort  
Time TempWeatherWind HumidityBarometerVisibility
2:00 PM
Nov 24
59 °FSunny.1 mph53%30.17 "Hg25 mi
1:00 PM57 °FSunny.2 mph58%30.18 "Hg17 mi
12:00 PM52 °FOvercast.1 mph74%30.19 "Hg15 mi
11:00 AM51 °FOvercast.2 mph75%30.18 "Hg15 mi
9:00 AM49 °FOvercast.1 mph80%30.19 "Hg17 mi
8:00 AM45 °FOvercast.3 mph87%30.21 "Hg22 mi
7:00 AM40 °FPassing clouds.1 mph94%30.22 "Hg16 mi
6:00 AM40 °FPassing clouds.2 mph96%30.23 "Hg17 mi
5:00 AM41 °FOvercast.2 mph93%30.22 "Hg13 mi
3:00 AM43 °FOvercast.2 mph92%30.20 "Hg19 mi
2:00 AM41 °FOvercast.2 mph91%30.22 "Hg11 mi
1:00 AM41 °FOvercast.1 mph92%30.22 "Hg16 mi
12:00 AM38 °FOvercast.2 mph94%30.24 "Hg19 mi
11:00 PM
Nov 23
37 °FPassing clouds.1 mph95%30.24 "Hg14 mi
9:00 PM39 °FClear.2 mph93%30.23 "Hg19 mi
8:00 PM41 °FClear.2 mph92%30.21 "Hg22 mi
7:00 PM41 °FClear.2 mph92%30.21 "Hg18 mi
6:00 PM45 °FClear.2 mph88%30.19 "Hg25 mi
5:00 PM49 °FClear.2 mph83%30.16 "Hg28 mi
3:00 PM60 °FSunny.1 mph52%30.11 "Hg12 mi
Weather by CustomWeather, © 2014

See weather overviewHow to use our weather pages